Weather History for Marrakech, Morocco

Change the Weather History Date:

Friday, February 15, 2013

  Actual Average Record
Temperature  
Mean Temperature 62 °F -  
Max Temperature 81 °F 70 °F 84 °F (2007)
Min Temperature 44 °F 48 °F 37 °F (1999)
Degree Days  
Heating Degree Days 2    
Growing Degree Days 12 (Base 50)    
Moisture  
Dew Point 35 °F    
Average Humidity 38    
Maximum Humidity 71    
Minimum Humidity 7    
Precipitation  
Precipitation 0.00 in 0.05 in - ()
Sea Level Pressure  
Sea Level Pressure 30.12 in    
Wind  
Wind Speed 3 mph ()    
Max Wind Speed 12 mph    
Max Gust Speed -    
Visibility 5.6 miles    
Events      
Averages and records for this station are not official NWS values.
T = Trace of Precipitation, MM = Missing Value Source: Averaged Metar Reports

Daily Weather History Graph

Daily Weather History Graph

Search for Another Location

Airport:

Trip Planner

Search our weather history database for the weather conditions in past years. The results will help you decide how hot, cold, wet, or windy it might be!

Date:

Astronomy

Feb. 15, 2013 Rise Set
Actual Time 7:13 AM WET 6:19 PM WET
Civil Twilight 6:48 AM WET 6:43 PM WET
Nautical Twilight 6:20 AM WET 7:12 PM WET
Astronomical Twilight 5:52 AM WET 7:40 PM WET
Moon 10:05 AM WET (2/15) 11:41 PM WET (2/15)
Length of Visible Light 11h 55m
Length of Day
11h 05m
Waxing Crescent, 28% of the Moon is Illuminated
Feb 15
Waxing Crescent
Feb 17
First Quarter
Feb 25
Full
Mar 4
Last Quarter
Mar 11
New

Hourly Weather History & Observations

Time (WET) Temp. Windchill Dew Point Humidity Pressure Visibility Wind Dir Wind Speed Gust Speed Precip Events Conditions
12:00 AM 60 °F - 40 °F 36% 30.14 in 6 mi SSW 5.8 mph - -  
12:00 AM 60.8 °F - 41.0 °F 48% 30.15 in - SSW 5.8 mph - N/A   Clear
1:00 AM 55.4 °F - 39.2 °F 54% 30.15 in - WSW 1.2 mph - N/A   Clear
1:30 AM 53.6 °F - 37.4 °F 54% 30.12 in - Calm Calm - N/A   Clear
2:00 AM 53.6 °F - 37.4 °F 54% 30.12 in - ESE 4.6 mph - N/A   Clear
2:30 AM 53.6 °F - 35.6 °F 51% 30.12 in - SE 2.3 mph - N/A   Clear
3:00 AM 51 °F - 35 °F 43% 30.13 in 6 mi Calm Calm - -  
3:00 AM 51.8 °F - 35.6 °F 54% 30.12 in - Calm Calm - N/A   Clear
3:30 AM 50.0 °F - 35.6 °F 58% 30.12 in - ESE 3.5 mph - N/A   Clear
4:00 AM 51.8 °F - 35.6 °F 54% 30.12 in - Variable 2.3 mph - N/A   Clear
4:30 AM 50.0 °F - 37.4 °F 62% 30.09 in - Variable 1.2 mph - N/A   Clear
5:00 AM 48.2 °F - 37.4 °F 66% 30.09 in - ESE 2.3 mph - N/A   Clear
5:30 AM 46.4 °F 44.3 °F 37.4 °F 71% 30.09 in - East 4.6 mph - N/A   Clear
6:00 AM 47 °F - 38 °F 60% 30.14 in 6 mi ENE 2.3 mph - -  
6:00 AM 46.4 °F - 37.4 °F 71% 30.09 in - ENE 2.3 mph - N/A   Clear
6:30 AM 46.4 °F 43.5 °F 37.4 °F 71% 30.12 in - East 5.8 mph - N/A   Clear
7:00 AM 46.4 °F 44.3 °F 35.6 °F 66% 30.12 in - East 4.6 mph - N/A   Clear
7:30 AM 44.6 °F 42.2 °F 35.6 °F 71% 30.12 in - East 4.6 mph - N/A   Clear
8:00 AM 48.2 °F - 37.4 °F 66% 30.12 in - East 3.5 mph - N/A   Clear
8:30 AM 55.4 °F - 39.2 °F 54% 30.15 in 5.0 mi East 2.3 mph - N/A   Unknown
9:00 AM 68 °F - 40 °F 25% 30.12 in 3 mi Calm Calm - -  
9:00 AM 66.2 °F - 41.0 °F 40% 30.15 in 3.1 mi Calm Calm - N/A   Unknown
9:30 AM 69.8 °F - 39.2 °F 33% 30.15 in 3.7 mi Calm Calm - N/A   Unknown
10:00 AM 71.6 °F - 37.4 °F 29% 30.15 in 5.6 mi Calm Calm - N/A   Unknown
10:30 AM 73.4 °F - 39.2 °F 29% 30.18 in 5.6 mi Calm Calm - N/A   Unknown
11:00 AM 73.4 °F - 39.2 °F 29% 30.18 in - Calm Calm - N/A   Clear
11:30 AM 77.0 °F - 39.2 °F 26% 30.15 in - Calm Calm - N/A   Clear
12:00 PM 78 °F - 38 °F 14% 30.09 in 6 mi WNW 3.5 mph - -   Scattered Clouds
12:00 PM 77.0 °F - 39.2 °F 26% 30.15 in 6.2 mi West 4.6 mph - N/A   Partly Cloudy
12:30 PM 78.8 °F - 37.4 °F 23% 30.15 in 6.2 mi Variable 6.9 mph - N/A   Partly Cloudy
1:00 PM 78.8 °F - 35.6 °F 21% 30.15 in 6.2 mi West 8.1 mph - N/A   Partly Cloudy
1:30 PM 80.6 °F - 32.0 °F 17% 30.12 in 6.2 mi West 10.4 mph - N/A   Partly Cloudy
2:00 PM 80.6 °F - 32.0 °F 17% 30.12 in 6.2 mi West 8.1 mph - N/A   Partly Cloudy
2:30 PM 80.6 °F - 30.2 °F 16% 30.12 in 6.2 mi West 11.5 mph - N/A   Partly Cloudy
3:00 PM 80 °F - 28 °F 7% 30.03 in 6 mi WNW 11.5 mph - -   Scattered Clouds
3:00 PM 80.6 °F - 28.4 °F 15% 30.09 in 6.2 mi WNW 11.5 mph - N/A   Partly Cloudy
3:30 PM 80.6 °F - 26.6 °F 14% 30.09 in 6.2 mi WNW 10.4 mph - N/A   Partly Cloudy
4:00 PM 80.6 °F - 28.4 °F 15% 30.09 in 6.2 mi WNW 10.4 mph - N/A   Partly Cloudy
4:30 PM 80.6 °F - 28.4 °F 15% 30.09 in 6.2 mi West 11.5 mph - N/A   Partly Cloudy
5:00 PM 78.8 °F - 28.4 °F 16% 30.09 in 6.2 mi WNW 8.1 mph - N/A   Partly Cloudy
5:30 PM 78.8 °F - 30.2 °F 17% 30.09 in 6.2 mi WNW 9.2 mph - N/A   Partly Cloudy
6:00 PM 75 °F - 32 °F 11% 30.04 in 6 mi West 6.9 mph - -   Scattered Clouds
6:00 PM 75.2 °F - 30.2 °F 19% 30.09 in 6.2 mi West 8.1 mph - N/A   Partly Cloudy
6:30 PM 71.6 °F - 33.8 °F 25% 30.09 in 6.2 mi WSW 4.6 mph - N/A   Partly Cloudy
7:00 PM 68.0 °F - 33.8 °F 28% 30.09 in 6.2 mi West 5.8 mph - N/A   Partly Cloudy
7:30 PM 66.2 °F - 33.8 °F 30% 30.12 in 6.2 mi West 3.5 mph - N/A   Partly Cloudy
8:00 PM 62.6 °F - 33.8 °F 34% 30.12 in 5.0 mi Calm Calm - N/A   Partly Cloudy
8:30 PM 60.8 °F - 33.8 °F 36% 30.12 in 5.0 mi Calm Calm - N/A   Partly Cloudy
9:00 PM 59 °F - 34 °F 27% 30.13 in 6 mi Calm Calm - -   Scattered Clouds
9:00 PM 59.0 °F - 33.8 °F 39% 30.12 in 5.6 mi Calm Calm - N/A   Partly Cloudy
9:30 PM 59.0 °F - 33.8 °F 39% 30.15 in 5.0 mi Calm Calm - N/A   Partly Cloudy
10:00 PM 57.2 °F - 33.8 °F 41% 30.15 in 4.3 mi Variable 2.3 mph - N/A   Partly Cloudy
10:30 PM 59.0 °F - 35.6 °F 42% 30.15 in 5.6 mi Calm Calm - N/A   Partly Cloudy
11:00 PM 57.2 °F - 35.6 °F 44% 30.15 in 5.0 mi Calm Calm - N/A   Partly Cloudy
11:30 PM 55.4 °F - 35.6 °F 47% 30.15 in 5.6 mi Variable 1.2 mph - N/A   Unknown